CW6020 Weather Reports


time (UTC)temp
F
wind
direction
speed
knots
gust
knots
rain 1hr
in
rain 24hr
in
rain mn
in
humidity
%
barometer
mb
20260506203041 57 176 0.0 0.9 0.00 0.00 0.00 82 1011.2
20260506202021 58 217 0.0 1.7 0.00 0.00 0.00 82 1011.1
20260506201021 57 0.0 1.7 0.00 0.00 0.00 81 1011.2
20260506200022 58 0.0 0.9 0.00 0.00 0.00 79 1010.9
20260506195041 59 0.0 0.9 0.00 0.00 0.00 78 1010.8
20260506194021 59 101 0.0 1.7 0.00 0.00 0.00 77 1010.7
20260506193021 60 19 0.0 1.7 0.00 0.00 0.00 76 1010.7
20260506192021 60 145 0.0 1.7 0.00 0.00 0.00 75 1010.6
20260506191021 61 0.0 1.7 0.00 0.00 0.00 75 1010.6
20260506190021 61 156 0.0 1.7 0.00 0.00 0.00 74 1010.7
20260506185021 61 0.0 0.9 0.00 0.00 0.00 72 1010.7
20260506184021 62 210 0.0 1.7 0.00 0.00 0.00 71 1010.7
20260506183021 62 102 0.9 1.7 0.00 0.00 0.00 70 1010.5
20260506182021 63 151 0.9 2.6 0.00 0.00 0.00 69 1010.5
20260506181041 63 189 0.9 1.7 0.00 0.00 0.00 68 1010.6
20260506180021 63 161 0.9 3.5 0.00 0.00 0.00 67 1010.5
20260506175021 64 282 1.7 2.6 0.00 0.00 0.00 66 1010.4
20260506174101 65 307 2.6 4.3 0.00 0.00 0.00 64 1010.3
20260506173021 64 233 0.9 2.6 0.00 0.00 0.00 66 1010.3
20260506172021 65 179 1.7 3.5 0.00 0.00 0.00 63 1010.3
20260506171041 65 188 1.7 4.3 0.00 0.00 0.00 64 1010.4
20260506170021 64 236 0.9 2.6 0.00 0.00 0.00 65 1010.5
20260506165021 66 234 1.7 2.6 0.00 0.00 0.00 64 1010.5
20260506164021 66 273 3.5 5.2 0.00 0.00 0.00 64 1010.5
20260506163021 66 225 2.6 5.2 0.00 0.00 0.00 65 1010.5
20260506162021 68 263 1.7 6.1 0.00 0.00 0.00 61 1010.5
20260506161041 68 247 1.7 4.3 0.00 0.00 0.00 61 1010.4
20260506160021 70 260 2.6 5.2 0.00 0.00 0.00 59 1010.3
20260506155021 68 282 2.6 6.1 0.00 0.00 0.00 62 1010.4
20260506154020 68 213 2.6 4.3 0.00 0.00 0.00 63 1010.4
20260506153021 68 232 2.6 7.0 0.00 0.00 0.00 64 1010.4
20260506152021 67 265 2.6 6.1 0.00 0.00 0.00 64 1010.4
20260506151020 65 264 2.6 4.3 0.00 0.00 0.00 65 1010.4
20260506150021 64 237 1.7 4.3 0.00 0.00 0.00 65 1010.4
20260506145021 65 265 2.6 6.1 0.00 0.00 0.00 64 1010.7
20260506144021 64 265 2.6 7.8 0.00 0.00 0.00 66 1010.4
20260506143020 64 244 2.6 5.2 0.00 0.00 0.00 66 1010.8
20260506142020 64 248 2.6 4.3 0.00 0.00 0.00 66 1010.9
20260506141020 64 235 1.7 4.3 0.00 0.00 0.00 67 1011.1
20260506140021 63 231 2.6 4.3 0.00 0.00 0.00 68 1011.0
20260506135020 63 240 3.5 6.1 0.00 0.00 0.00 68 1011.1
20260506134040 63 259 3.5 5.2 0.00 0.00 0.00 69 1011.2
20260506133021 63 229 1.7 7.0 0.00 0.00 0.00 68 1011.4
20260506132020 64 241 2.6 5.2 0.00 0.00 0.00 68 1011.4
20260506131021 65 252 2.6 5.2 0.00 0.00 0.00 66 1011.3
20260506130021 65 237 3.5 5.2 0.00 0.00 0.00 65 1011.3
20260506125021 65 225 2.6 5.2 0.00 0.00 0.00 65 1011.4
20260506124021 66 244 3.5 6.1 0.00 0.00 0.00 66 1011.3
20260506123041 66 241 3.5 5.2 0.00 0.00 0.00 67 1011.3
20260506122041 66 256 4.3 6.1 0.00 0.00 0.00 67 1011.4
20260506121041 66 249 2.6 5.2 0.00 0.00 0.00 67 1011.4
20260506120021 66 247 2.6 6.1 0.00 0.00 0.00 66 1011.5
20260506115020 66 257 3.5 5.2 0.00 0.00 0.00 66 1011.5
20260506114021 66 259 3.5 7.8 0.00 0.00 0.00 67 1011.7
20260506113021 67 270 3.5 7.0 0.00 0.00 0.00 67 1011.7
20260506112020 67 194 2.6 6.1 0.00 0.00 0.00 66 1011.8
20260506111020 66 237 3.5 5.2 0.00 0.00 0.00 66 1011.8
20260506110020 67 218 2.6 5.2 0.00 0.00 0.00 64 1012.0
20260506105020 67 249 3.5 6.1 0.00 0.00 0.00 64 1011.9
20260506104020 68 238 3.5 5.2 0.00 0.00 0.00 61 1011.9
20260506103020 67 299 5.2 9.6 0.00 0.00 0.00 65 1011.9
20260506102040 67 244 3.5 7.0 0.00 0.00 0.00 66 1011.8
20260506101021 68 185 3.5 7.8 0.00 0.00 0.00 62 1011.8
20260506100021 68 252 3.5 7.0 0.00 0.00 0.00 64 1011.7
20260506095021 67 274 3.5 7.8 0.00 0.00 0.00 65 1011.7
20260506094021 65 245 2.6 7.8 0.00 0.00 0.00 71 1011.7
20260506093021 65 259 3.5 6.1 0.00 0.00 0.00 69 1011.6
20260506092021 66 228 2.6 5.2 0.00 0.00 0.00 68 1011.4
20260506091020 67 257 3.5 7.8 0.00 0.00 0.00 66 1011.3
20260506090020 66 251 3.5 7.8 0.00 0.00 0.00 69 1011.3
20260506085040 65 257 3.5 5.2 0.00 0.00 0.00 69 1011.2
20260506084021 64 246 3.5 6.1 0.00 0.00 0.00 73 1011.2
20260506083040 64 271 3.5 7.0 0.00 0.00 0.00 74 1011.3
20260506082020 64 229 3.5 7.8 0.00 0.00 0.00 73 1011.4
20260506081020 63 255 2.6 7.0 0.00 0.00 0.00 75 1011.3
20260506073021 62 243 2.6 6.1 0.00 0.00 0.00 76 1011.2
20260506072041 62 322 3.5 7.0 0.00 0.00 0.00 77 1011.4
20260506071101 62 335 2.6 7.0 0.00 0.00 0.00 77 1011.2
20260506062022 61 333 4.3 9.6 0.00 0.00 0.00 77 1011.1
20260506061042 61 297 3.5 7.8 0.00 0.00 0.00 77 1011.1
20260506051041 60 317 2.6 5.2 0.00 0.00 0.00 82 1010.8
20260506045041 60 277 2.6 6.1 0.00 0.00 0.00 84 1010.6
20260506044021 60 246 1.7 3.5 0.00 0.00 0.00 84 1010.4
20260506043020 60 301 3.5 7.8 0.00 0.00 0.00 84 1010.4
20260506042020 60 307 2.6 7.0 0.00 0.00 0.00 84 1010.4
20260506041021 60 337 4.3 8.7 0.00 0.00 0.00 85 1010.4
20260506040020 60 325 3.5 7.8 0.00 0.00 0.00 86 1010.4
20260506035021 60 314 2.6 4.3 0.00 0.00 0.00 86 1010.4
20260506034021 60 317 1.7 3.5 0.00 0.00 0.00 87 1010.4
20260506033021 60 303 2.6 5.2 0.00 0.00 0.00 85 1010.3
20260506032020 60 315 3.5 7.0 0.00 0.00 0.00 85 1010.4
20260506031021 61 250 1.7 9.6 0.00 0.00 0.00 85 1010.2
20260506030021 61 246 2.6 5.2 0.00 0.00 0.00 86 1010.1
20260506025021 60 331 2.6 9.6 0.00 0.00 0.00 86 1010.0
20260506024042 61 232 1.7 5.2 0.00 0.00 0.00 86 1010.0
20260506023021 61 282 2.6 5.2 0.00 0.00 0.00 86 1010.0
20260506022041 61 316 2.6 7.0 0.00 0.00 0.00 86 1010.1
20260506021020 61 262 4.3 10.4 0.00 0.00 0.00 87 1010.1
20260506020040 61 313 2.6 10.4 0.00 0.00 0.00 87 1010.0
20260506015020 61 317 4.3 10.4 0.00 0.00 0.00 87 1010.0
20260506014020 61 336 9.6 18.2 0.00 0.00 0.00 88 1009.8
20260506013020 61 334 8.7 15.6 0.00 0.00 0.00 89 1009.9
20260506012020 62 327 9.6 19.1 0.00 0.00 0.00 89 1009.9
20260506011021 62 329 10.4 22.6 0.00 0.00 0.00 88 1010.0
20260506010041 62 332 12.2 20.9 0.00 0.00 0.00 88 1009.9
20260506005020 62 338 12.2 21.7 0.00 0.00 0.00 87 1010.1
20260506004020 63 342 13.0 20.9 0.00 0.00 0.00 86 1010.1
20260506003021 63 335 10.4 20.9 0.00 0.00 0.00 85 1010.1
20260506002040 63 338 13.0 22.6 0.00 0.00 0.00 84 1010.1
20260506001020 63 339 13.0 19.1 0.00 0.00 0.00 83 1010.2
20260506000021 63 323 9.6 14.8 0.00 0.00 0.00 81 1010.4
20260505235040 63 318 9.6 18.2 0.00 0.00 0.00 81 1010.4
20260505234022 63 337 11.3 18.2 0.00 0.00 0.00 79 1010.3
20260505233021 63 339 12.2 19.1 0.00 0.00 0.00 78 1010.1
20260505232022 64 324 8.7 17.4 0.00 0.00 0.00 74 1010.3
20260505231020 64 319 7.8 14.8 0.00 0.00 0.00 63 1010.3
20260505230041 64 337 8.7 16.5 0.00 0.00 0.00 57 1010.2
20260505225041 64 337 7.8 13.0 0.00 0.00 0.00 56 1009.9
20260505224021 58 329 6.1 13.0 0.00 0.00 0.00 76 1010.2
20260505223041 57 295 0.9 3.5 0.00 0.00 0.00 82 1010.0
20260505222021 57 61 0.0 1.7 0.00 0.00 0.00 81 1010.2
20260505221029 57 83 0.9 2.6 0.00 0.00 0.00 80 1010.2
20260505220021 59 169 0.9 2.6 0.00 0.00 0.00 78 1010.2
20260505215101 60 124 0.0 0.9 0.00 0.00 0.00 74 1010.3
20260505214021 60 310 0.0 0.9 0.00 0.00 0.00 73 1010.4
20260505213021 61 275 0.0 1.7 0.00 0.00 0.00 71 1010.4
20260505212021 61 117 0.0 2.6 0.00 0.00 0.00 71 1010.3
20260505211021 61 351 0.0 1.7 0.00 0.00 0.00 72 1010.4
20260505210021 61 0.0 0.9 0.00 0.00 0.00 71 1010.4
20260505205021 62 0.0 0.9 0.00 0.00 0.00 72 1010.5
20260505204021 62 204 0.0 0.9 0.00 0.00 0.00 71 1010.4